Time,TemperatureF,DewpointF,PressureIn,WindDirection,WindDirectionDegrees,WindSpeedMPH,WindSpeedGustMPH,Humidity,HourlyPrecipIn,Conditions,Clouds,dailyrainin,SoftwareType,DateUTC
2013-02-18 00:12:00,50.4,35.7,29.62,SSW,202,11.4,-999.0,57,-99.99,,,0.00,Acu-Link.com,2013-02-18 06:12:00,
2013-02-18 00:27:00,50.2,35.6,29.61,South,180,11.4,-999.0,57,-99.99,,,0.00,Acu-Link.com,2013-02-18 06:27:00,
2013-02-18 00:42:00,50.0,35.4,29.61,South,180,9.4,-999.0,57,-99.99,,,0.00,Acu-Link.com,2013-02-18 06:42:00,
2013-02-18 00:57:00,50.0,35.8,29.61,South,180,10.9,-999.0,58,-99.99,,,0.00,Acu-Link.com,2013-02-18 06:57:00,
2013-02-18 01:12:00,49.1,35.0,29.60,SSE,157,14.5,-999.0,58,-99.99,,,0.00,Acu-Link.com,2013-02-18 07:12:00,
2013-02-18 01:27:00,50.0,35.8,29.60,South,180,17.1,-999.0,58,-99.99,,,0.00,Acu-Link.com,2013-02-18 07:27:00,
2013-02-18 01:42:00,49.6,35.4,29.59,South,180,13.0,-999.0,58,-99.99,,,0.00,Acu-Link.com,2013-02-18 07:42:00,
2013-02-18 01:58:00,50.2,36.0,29.59,SSE,157,12.5,-999.0,58,-99.99,,,0.00,Acu-Link.com,2013-02-18 07:58:00,
2013-02-18 02:13:00,49.8,36.1,29.57,South,180,10.9,-999.0,59,-99.99,,,0.00,Acu-Link.com,2013-02-18 08:13:00,
2013-02-18 02:28:00,49.6,35.9,29.57,SSW,202,18.6,-999.0,59,-99.99,,,0.00,Acu-Link.com,2013-02-18 08:28:00,
2013-02-18 02:43:00,50.2,36.0,29.55,South,180,13.5,-999.0,58,-99.99,,,0.00,Acu-Link.com,2013-02-18 08:43:00,
2013-02-18 02:58:00,50.7,36.5,29.54,South,180,11.9,-999.0,58,-99.99,,,0.00,Acu-Link.com,2013-02-18 08:58:00,
2013-02-18 03:18:00,51.1,36.4,29.53,South,180,17.1,-999.0,57,-99.99,,,0.00,Acu-Link.com,2013-02-18 09:18:00,
2013-02-18 03:33:00,50.5,36.3,29.53,South,180,13.5,-999.0,58,-99.99,,,0.00,Acu-Link.com,2013-02-18 09:33:00,
2013-02-18 03:49:00,50.4,36.2,29.51,South,180,16.6,-999.0,58,-99.99,,,0.00,Acu-Link.com,2013-02-18 09:49:00,
2013-02-18 04:04:00,50.7,36.5,29.51,South,180,15.0,-999.0,58,-99.99,,,0.00,Acu-Link.com,2013-02-18 10:04:00,
2013-02-18 04:19:00,50.5,36.7,29.51,South,180,17.6,-999.0,59,-99.99,,,0.00,Acu-Link.com,2013-02-18 10:19:00,
2013-02-18 04:34:00,50.5,36.7,29.50,SSE,157,11.9,-999.0,59,-99.99,,,0.00,Acu-Link.com,2013-02-18 10:34:00,
2013-02-18 04:49:00,50.2,36.9,29.50,SSE,157,13.5,-999.0,60,-99.99,,,0.00,Acu-Link.com,2013-02-18 10:49:00,
2013-02-18 05:04:00,50.2,37.3,29.51,SE,135,11.4,-999.0,61,-99.99,,,0.00,Acu-Link.com,2013-02-18 11:04:00,
2013-02-18 05:20:00,49.8,37.3,29.50,SSE,157,14.0,-999.0,62,-99.99,,,0.00,Acu-Link.com,2013-02-18 11:20:00,
2013-02-18 05:50:00,49.6,37.9,29.49,South,180,9.4,-999.0,64,-99.99,,,0.00,Acu-Link.com,2013-02-18 11:50:00,
2013-02-18 06:05:00,49.8,38.1,29.49,SSE,157,13.0,-999.0,64,-99.99,,,0.00,Acu-Link.com,2013-02-18 12:05:00,
2013-02-18 06:20:00,49.8,38.5,29.49,SSW,202,15.0,-999.0,65,-99.99,,,0.00,Acu-Link.com,2013-02-18 12:20:00,
2013-02-18 06:35:00,49.3,38.8,29.50,South,180,4.7,-999.0,67,-99.99,,,0.00,Acu-Link.com,2013-02-18 12:35:00,
2013-02-18 06:50:00,48.7,38.6,29.50,South,180,7.8,-999.0,68,-99.99,,,0.00,Acu-Link.com,2013-02-18 12:50:00,
2013-02-18 07:05:00,49.5,39.8,29.49,SSE,157,10.4,-999.0,69,-99.99,,,0.00,Acu-Link.com,2013-02-18 13:05:00,
2013-02-18 07:21:00,50.0,40.6,29.49,South,180,11.9,-999.0,70,-99.99,,,0.00,Acu-Link.com,2013-02-18 13:21:00,
2013-02-18 07:36:00,50.9,41.5,29.49,SSW,202,13.5,-999.0,70,-99.99,,,0.00,Acu-Link.com,2013-02-18 13:36:00,
2013-02-18 07:51:00,51.6,42.5,29.50,SSW,202,10.9,-999.0,71,-99.99,,,0.00,Acu-Link.com,2013-02-18 13:51:00,
2013-02-18 08:06:00,52.0,43.3,29.51,SSW,202,9.9,-999.0,72,-99.99,,,0.00,Acu-Link.com,2013-02-18 14:06:00,
2013-02-18 08:21:00,52.9,44.5,29.50,SSW,202,10.9,-999.0,73,-99.99,,,0.00,Acu-Link.com,2013-02-18 14:21:00,
2013-02-18 08:36:00,53.1,45.0,29.51,South,180,12.5,-999.0,74,-99.99,,,0.00,Acu-Link.com,2013-02-18 14:36:00,
2013-02-18 08:51:00,53.6,45.9,29.50,SSW,202,10.4,-999.0,75,-99.99,,,0.00,Acu-Link.com,2013-02-18 14:51:00,
2013-02-18 09:06:00,54.7,46.9,29.51,SSW,202,12.5,-999.0,75,-99.99,,,0.00,Acu-Link.com,2013-02-18 15:06:00,
2013-02-18 09:21:00,54.7,46.9,29.50,SSW,202,10.9,-999.0,75,-99.99,,,0.00,Acu-Link.com,2013-02-18 15:21:00,
2013-02-18 09:52:00,54.3,47.2,29.49,SSW,202,13.0,-999.0,77,-99.99,,,0.00,Acu-Link.com,2013-02-18 15:52:00,
2013-02-18 10:07:00,54.7,48.0,29.48,SSW,202,12.5,-999.0,78,-99.99,,,0.00,Acu-Link.com,2013-02-18 16:07:00,
2013-02-18 10:22:00,54.1,47.7,29.48,SSE,157,8.9,-999.0,79,-99.99,,,0.00,Acu-Link.com,2013-02-18 16:22:00,
2013-02-18 10:37:00,53.1,48.1,29.48,SSE,157,8.9,-999.0,83,-99.99,,,0.00,Acu-Link.com,2013-02-18 16:37:00,
2013-02-18 10:52:00,52.7,48.6,29.47,South,180,9.4,-999.0,86,-99.99,,,0.00,Acu-Link.com,2013-02-18 16:52:00,
2013-02-18 11:07:00,52.0,49.2,29.47,SSW,202,7.3,-999.0,90,-99.99,,,0.00,Acu-Link.com,2013-02-18 17:07:00,
2013-02-18 11:22:00,51.8,49.6,29.47,SSW,202,8.9,-999.0,92,-99.99,,,0.00,Acu-Link.com,2013-02-18 17:22:00,
2013-02-18 11:38:00,52.3,50.0,29.47,SSW,202,6.3,-999.0,92,-99.99,,,0.00,Acu-Link.com,2013-02-18 17:38:00,
2013-02-18 11:53:00,52.5,50.5,29.46,SW,225,3.2,-999.0,93,-99.99,,,0.00,Acu-Link.com,2013-02-18 17:53:00,
2013-02-18 12:08:00,52.7,51.0,29.46,South,180,3.7,-999.0,94,-99.99,,,0.00,Acu-Link.com,2013-02-18 18:08:00,
2013-02-18 12:23:00,52.5,51.1,29.45,NW,315,2.2,-999.0,95,-99.99,,,0.00,Acu-Link.com,2013-02-18 18:23:00,
2013-02-18 12:38:00,52.9,51.8,29.45,WNW,292,1.7,-999.0,96,-99.99,,,0.01,Acu-Link.com,2013-02-18 18:38:00,
2013-02-18 12:53:00,51.8,51.3,29.44,NE,45,1.7,-999.0,98,-99.99,,,0.02,Acu-Link.com,2013-02-18 18:53:00,
2013-02-18 13:09:00,46.6,45.8,29.44,WNW,292,22.7,-999.0,97,-99.99,,,0.07,Acu-Link.com,2013-02-18 19:09:00,
2013-02-18 13:24:00,41.7,41.2,29.47,WNW,292,19.1,-999.0,98,-99.99,,,0.08,Acu-Link.com,2013-02-18 19:24:00,
2013-02-18 13:39:00,40.1,39.3,29.49,West,270,15.5,-999.0,97,-99.99,,,0.08,Acu-Link.com,2013-02-18 19:39:00,
2013-02-18 13:54:00,39.9,39.4,29.49,NW,315,13.0,-999.0,98,-99.99,,,0.09,Acu-Link.com,2013-02-18 19:54:00,
2013-02-18 14:09:00,39.9,39.1,29.50,NNW,337,18.6,-999.0,97,-99.99,,,0.09,Acu-Link.com,2013-02-18 20:09:00,
2013-02-18 14:24:00,40.1,39.1,29.50,WNW,292,21.7,-999.0,96,-99.99,,,0.09,Acu-Link.com,2013-02-18 20:24:00,
2013-02-18 14:39:00,40.5,38.9,29.53,NW,315,11.9,-999.0,94,-99.99,,,0.09,Acu-Link.com,2013-02-18 20:39:00,
2013-02-18 14:54:00,40.3,38.2,29.52,NW,315,17.1,-999.0,92,-99.99,,,0.09,Acu-Link.com,2013-02-18 20:54:00,
2013-02-18 15:09:00,40.3,38.2,29.54,North,0,16.6,-999.0,92,-99.99,,,0.09,Acu-Link.com,2013-02-18 21:09:00,
2013-02-18 15:25:00,40.6,37.6,29.55,NW,315,16.6,-999.0,89,-99.99,,,0.09,Acu-Link.com,2013-02-18 21:25:00,
2013-02-18 15:40:00,40.8,37.5,29.58,WNW,292,10.9,-999.0,88,-99.99,,,0.09,Acu-Link.com,2013-02-18 21:40:00,
2013-02-18 15:55:00,40.1,36.5,29.60,NW,315,17.1,-999.0,87,-99.99,,,0.09,Acu-Link.com,2013-02-18 21:55:00,
2013-02-18 16:10:00,38.5,34.7,29.62,WNW,292,16.1,-999.0,86,-99.99,,,0.09,Acu-Link.com,2013-02-18 22:10:00,
2013-02-18 16:25:00,38.1,34.0,29.63,WNW,292,16.1,-999.0,85,-99.99,,,0.09,Acu-Link.com,2013-02-18 22:25:00,
2013-02-18 16:40:00,37.2,33.1,29.66,NW,315,18.1,-999.0,85,-99.99,,,0.09,Acu-Link.com,2013-02-18 22:40:00,
2013-02-18 16:56:00,36.0,31.9,29.67,NNW,337,11.9,-999.0,85,-99.99,,,0.09,Acu-Link.com,2013-02-18 22:56:00,
2013-02-18 17:26:00,35.1,30.5,29.72,WNW,292,12.5,-999.0,83,-99.99,,,0.09,Acu-Link.com,2013-02-18 23:26:00,
2013-02-18 17:41:00,34.7,30.1,29.74,WNW,292,9.4,-999.0,83,-99.99,,,0.09,Acu-Link.com,2013-02-18 23:41:00,
2013-02-18 17:56:00,34.5,30.2,29.74,NW,315,13.0,-999.0,84,-99.99,,,0.09,Acu-Link.com,2013-02-18 23:56:00,
2013-02-18 18:11:00,34.0,29.1,29.76,WNW,292,11.9,-999.0,82,-99.99,,,0.09,Acu-Link.com,2013-02-19 00:11:00,
2013-02-18 18:27:00,32.9,27.7,29.79,WNW,292,10.4,-999.0,81,-99.99,,,0.09,Acu-Link.com,2013-02-19 00:27:00,
2013-02-18 18:42:00,32.4,27.2,29.80,WNW,292,9.4,-999.0,81,-99.99,,,0.09,Acu-Link.com,2013-02-19 00:42:00,
2013-02-18 18:57:00,32.7,26.9,29.81,WNW,292,12.5,-999.0,79,-99.99,,,0.09,Acu-Link.com,2013-02-19 00:57:00,
2013-02-18 19:12:00,32.2,25.8,29.82,NNW,337,13.5,-999.0,77,-99.99,,,0.09,Acu-Link.com,2013-02-19 01:12:00,
2013-02-18 19:27:00,31.5,25.4,29.84,WNW,292,9.4,-999.0,78,-99.99,,,0.09,Acu-Link.com,2013-02-19 01:27:00,
2013-02-18 19:42:00,31.6,25.2,29.84,WNW,292,8.9,-999.0,77,-99.99,,,0.09,Acu-Link.com,2013-02-19 01:42:00,
2013-02-18 19:58:00,30.7,24.0,29.86,WNW,292,13.0,-999.0,76,-99.99,,,0.09,Acu-Link.com,2013-02-19 01:58:00,
2013-02-18 20:13:00,30.2,23.2,29.87,WNW,292,8.9,-999.0,75,-99.99,,,0.09,Acu-Link.com,2013-02-19 02:13:00,
2013-02-18 20:28:00,29.7,22.4,29.88,WNW,292,10.9,-999.0,74,-99.99,,,0.09,Acu-Link.com,2013-02-19 02:28:00,
2013-02-18 20:43:00,29.1,21.9,29.88,WNW,292,12.5,-999.0,74,-99.99,,,0.09,Acu-Link.com,2013-02-19 02:43:00,
2013-02-18 20:58:00,28.9,21.0,29.88,WNW,292,10.9,-999.0,72,-99.99,,,0.09,Acu-Link.com,2013-02-19 02:58:00,
2013-02-18 21:14:00,28.6,21.1,29.90,West,270,9.4,-999.0,73,-99.99,,,0.09,Acu-Link.com,2013-02-19 03:14:00,
2013-02-18 21:29:00,28.2,20.7,29.90,WNW,292,9.9,-999.0,73,-99.99,,,0.09,Acu-Link.com,2013-02-19 03:29:00,
2013-02-18 21:44:00,28.0,20.5,29.91,WNW,292,4.2,-999.0,73,-99.99,,,0.09,Acu-Link.com,2013-02-19 03:44:00,
2013-02-18 21:59:00,27.9,20.4,29.91,NW,315,8.9,-999.0,73,-99.99,,,0.09,Acu-Link.com,2013-02-19 03:59:00,
2013-02-18 22:15:00,27.5,20.3,29.92,WNW,292,8.9,-999.0,74,-99.99,,,0.09,Acu-Link.com,2013-02-19 04:15:00,
2013-02-18 22:30:00,27.0,20.2,29.93,NW,315,3.2,-999.0,75,-99.99,,,0.09,Acu-Link.com,2013-02-19 04:30:00,
2013-02-18 22:45:00,26.4,19.9,29.93,NW,315,3.7,-999.0,76,-99.99,,,0.09,Acu-Link.com,2013-02-19 04:45:00,
2013-02-18 23:00:00,26.8,20.0,29.94,West,270,5.3,-999.0,75,-99.99,,,0.09,Acu-Link.com,2013-02-19 05:00:00,
2013-02-18 23:15:00,26.8,20.0,29.95,NE,45,4.7,-999.0,75,-99.99,,,0.09,Acu-Link.com,2013-02-19 05:15:00,
2013-02-18 23:30:00,26.2,19.7,29.95,West,270,3.2,-999.0,76,-99.99,,,0.09,Acu-Link.com,2013-02-19 05:30:00,
2013-02-18 23:46:00,27.0,19.2,29.96,NNW,337,8.3,-999.0,72,-99.99,,,0.09,Acu-Link.com,2013-02-19 05:46:00,